Location: McFarlands Corners
(41.4117°N, 81.3382°W)
Time: 07:20:00
(UTC+00:00)

Tiros 1 - Pass Details

Date: 23 February 2026
Orbit: 618 x 649 km, 48.4° (Epoch: 9 March)

Event Time Altitude Azimuth Distance (km) Brightness Sun altitude
Rises 14:58:58 0° 288° (WNW) 2,913 10.0 27.1°
Reaches altitude 10° 15:01:29 10° 297° (WNW) 2,000 9.2 27.4°
Maximum altitude 15:05:40 34° 3° (N) 1,031 8.1 28.0°
Drops below altitude 10° 15:09:50 10° 69° (ENE) 1,985 10.0 28.5°
Sets 15:12:19 0° 79° (E) 2,888 10.9 28.8°
